{"data":{"norad_id":67848,"epoch":"2026-05-24T13:17:53.903040Z","epoch_age_seconds":106877,"freshness":"FRESH","line1":"1 67848U 26033AD  26144.55409610  .00015943  00000+0  58734-3 0  9995","line2":"2 67848  43.0001 198.8569 0001985 269.0653  90.9972 15.27595954 16277","mean_motion":15.27595954,"eccentricity":0.0001985,"inclination_deg":43.0001,"raan_deg":198.8569,"arg_perigee_deg":269.0653,"mean_anomaly_deg":90.9972,"bstar":0.00058734,"rev_number":1627,"period_min":94.265764204819,"perigee_km":481.6393884826,"apogee_km":484.3632603974,"semimajor_km":6861.13832444,"source":"CELESTRAK","updated_at":"2026-05-25T13:38:21.724077Z"}}